CZ-4 DEB

Satellite information

Favourite Embed

Satellite Type and Status

DEBRISIN ORBIT

Key statistics

Satellite CZ-4 DEB at a glance.

Uptime

12726

Days in orbit

Revolutions

≈ 14.1

Per day

Orbit

SSO

Sun Synchronous Orbit

Inclination

99.0

Latest

Satellite identification and parameters

Extended collection of information and parameters for CZ-4 DEB.

Object identification

Identified? True

Debris? True

Object name: CZ-4 DEB

International designator: 1990-081DA

Object number (NORAD): 37614

Object ID (CCSDS): 37614

Country: PEOPLES REPUBLIC OF CHINA (PRC)

Current information (Y/N): Y

RCS size: SMALL

Orbital parameters

Period: 102.431 minutes

Inclination: 98.9552 deg

SMA: 7251.813 km

Apoapsis: 927.85 km

Periapsis: 819.506 km

RAAN: 168.213 deg

Eccentricy: 0.0074701

Argument of periapsis: 142.8648 deg

Mean anomaly: 342.7181 deg

Mean motion: 14.05830227 rev/day

Mean motion (dot): 0.00000282 rev/day2

B* drag term: 0.00019442 1/REarth

Two-line elements (TLE)

Creation date: July 4, 2025, 3:20 a.m.

Reference frame: TEME

Reference center: EARTH

Epoch: July 3, 2025, 6:02 p.m. UTC

TLE line 0: 0 CZ-4 DEB

TLE line 1: 1 37614U 90081DA 25184.75185478 .00000282 00000-0 19442-3 0 9999

TLE line 2: 2 37614 98.9552 168.2130 0074701 142.8648 342.7181 14.05830227 67027

Live tracking on map

Real-time ground track for satellite CZ-4 DEB.

In-orbit conjunctions

A list of the most updated potential collisions computed for object CZ-4 DEB.

Target Orbit TCA Probability of collision Miss distance Type
COSMOS 1275 DEB LEO 2025-02-05 07:45:15 0.0001097524 141.0 (m) DEBRIS
CZ-6A DEB LEO 2025-02-03 14:24:03 0.0005642867 375.0 (m) DEBRIS
METEOR 2-17 DEB LEO 2024-09-28 17:18:05 0.0001244935 246.0 (m) DEBRIS

Associated space launch

Chinese polar orbiting meteorological satellite

CZ-4 DEB was lifted into orbit during the mission ‘Long March 4A | Feng Yun 1B’, on board a Long March 4A space rocket.

The launch took place on Sept. 3, 1990, 12:53 a.m. from Launch Complex 7.

For more information about the launch, click the button.

Launch to space Long March 4A | Feng Yun 1B
Long March 4A | Feng Yun 1B

Agency: N/A

Status: Launch Successful

Launch date: Sept. 3, 1990, 12:53 a.m. UTC

Rocket: Long March 4A

Launch pad: Launch Complex 7

Location: Taiyuan Satellite Launch Center, People's Republic of China

...

Latest news about this satellite

There are no fresh news available about this satellite. Check back as we update our databases every day.


Newsletter sign-up

Weekly statistics, charts and insights to help you stay on top of the space industry.